Time,TemperatureF,DewpointF,PressureIn,WindDirection,WindDirectionDegrees,WindSpeedMPH,WindSpeedGustMPH,Humidity,HourlyPrecipIn,Conditions,Clouds,dailyrainin,SolarRadiationWatts/m^2,SoftwareType,DateUTC
2013-04-10 00:23:00,51.0,51.0,-100.00,SW,235,2.0,4.0,100,0.00,,,0.03,0.000000,,2013-04-10 10:23:00,
2013-04-10 00:33:00,51.0,51.0,-100.00,SW,235,2.0,4.0,100,0.00,,,0.03,0.000000,,2013-04-10 10:33:00,
2013-04-10 00:42:00,51.0,51.0,-100.00,SW,235,2.0,4.0,100,0.00,,,0.03,0.000000,,2013-04-10 10:42:00,
2013-04-10 00:52:00,51.0,51.0,-100.00,SW,235,2.0,4.0,100,0.00,,,0.03,0.000000,,2013-04-10 10:52:00,
2013-04-10 03:32:00,44.0,43.0,-100.00,SE,132,4.0,9.0,95,-99.99,,,0.03,0.000000,,2013-04-10 13:32:00,
2013-04-10 03:42:00,44.0,43.0,-100.00,SE,132,4.0,9.0,95,-99.99,,,0.03,0.000000,,2013-04-10 13:42:00,
2013-04-10 03:52:00,44.0,43.0,-100.00,SE,132,4.0,9.0,95,-99.99,,,0.03,0.000000,,2013-04-10 13:52:00,
2013-04-10 04:22:00,44.0,42.0,-100.00,SSW,195,5.0,9.0,91,0.00,,,0.03,0.000000,,2013-04-10 14:22:00,
2013-04-10 04:32:00,44.0,42.0,-100.00,SSW,195,5.0,9.0,91,0.00,,,0.03,0.000000,,2013-04-10 14:32:00,
2013-04-10 04:42:00,44.0,42.0,-100.00,SSW,195,5.0,9.0,91,0.00,,,0.03,0.000000,,2013-04-10 14:42:00,
2013-04-10 04:52:00,44.0,42.0,-100.00,SSW,195,5.0,9.0,91,0.00,,,0.03,0.000000,,2013-04-10 14:52:00,
2013-04-10 06:23:00,43.0,39.0,-100.00,SE,141,6.0,14.0,85,-99.99,,,0.03,0.000000,,2013-04-10 16:23:00,
2013-04-10 06:32:00,43.0,39.0,-100.00,SE,141,6.0,14.0,85,-99.99,,,0.03,0.000000,,2013-04-10 16:32:00,
2013-04-10 06:43:00,43.0,39.0,-100.00,SE,141,6.0,14.0,85,-99.99,,,0.03,0.000000,,2013-04-10 16:43:00,
2013-04-10 06:52:00,43.0,39.0,-100.00,SE,141,6.0,14.0,85,-99.99,,,0.03,0.000000,,2013-04-10 16:52:00,
2013-04-10 07:22:00,47.0,37.0,-100.00,ESE,120,6.0,10.0,68,0.00,,,0.03,85.000000,,2013-04-10 17:22:00,
2013-04-10 07:33:00,47.0,37.0,-100.00,ESE,120,6.0,10.0,68,0.00,,,0.03,85.000000,,2013-04-10 17:33:00,
2013-04-10 07:42:00,47.0,37.0,-100.00,ESE,120,6.0,10.0,68,0.00,,,0.03,85.000000,,2013-04-10 17:42:00,
2013-04-10 07:52:00,47.0,37.0,-100.00,ESE,120,6.0,10.0,68,0.00,,,0.03,85.000000,,2013-04-10 17:52:00,
2013-04-10 08:22:00,64.0,37.0,-100.00,ESE,106,3.0,8.0,37,0.00,,,0.03,366.000000,,2013-04-10 18:22:00,
2013-04-10 08:32:00,64.0,37.0,-100.00,ESE,106,3.0,8.0,37,0.00,,,0.03,366.000000,,2013-04-10 18:32:00,
2013-04-10 08:42:00,64.0,37.0,-100.00,ESE,106,3.0,8.0,37,0.00,,,0.03,366.000000,,2013-04-10 18:42:00,
2013-04-10 08:52:00,64.0,37.0,-100.00,ESE,106,3.0,8.0,37,0.00,,,0.03,366.000000,,2013-04-10 18:52:00,
2013-04-10 09:22:00,69.0,33.0,-100.00,North,350,3.0,8.0,26,0.00,,,0.03,626.000000,,2013-04-10 19:22:00,
2013-04-10 09:32:00,69.0,33.0,-100.00,North,350,3.0,8.0,26,0.00,,,0.03,626.000000,,2013-04-10 19:32:00,
2013-04-10 09:42:00,69.0,33.0,-100.00,North,350,3.0,8.0,26,0.00,,,0.03,626.000000,,2013-04-10 19:42:00,
2013-04-10 09:52:00,69.0,33.0,-100.00,North,350,3.0,8.0,26,0.00,,,0.03,626.000000,,2013-04-10 19:52:00,
2013-04-10 10:23:00,70.0,41.0,-100.00,NW,319,4.0,11.0,35,0.00,,,0.03,837.000000,,2013-04-10 20:23:00,
2013-04-10 10:32:00,70.0,41.0,-100.00,NW,319,4.0,11.0,35,0.00,,,0.03,837.000000,,2013-04-10 20:32:00,
2013-04-10 10:42:00,70.0,41.0,-100.00,NW,319,4.0,11.0,35,0.00,,,0.03,837.000000,,2013-04-10 20:42:00,
2013-04-10 10:52:00,70.0,41.0,-100.00,NW,319,4.0,11.0,35,0.00,,,0.03,837.000000,,2013-04-10 20:52:00,
2013-04-10 11:22:00,70.0,49.0,-100.00,NW,314,7.0,14.0,47,0.00,,,-99.99,992.000000,,2013-04-10 21:22:00,
2013-04-10 11:32:00,70.0,49.0,-100.00,NW,314,7.0,14.0,47,0.00,,,-99.99,992.000000,,2013-04-10 21:32:00,
2013-04-10 11:42:00,70.0,49.0,-100.00,NW,314,7.0,14.0,47,0.00,,,-99.99,992.000000,,2013-04-10 21:42:00,
2013-04-10 11:52:00,70.0,49.0,-100.00,NW,314,7.0,14.0,47,0.00,,,-99.99,992.000000,,2013-04-10 21:52:00,
2013-04-10 12:22:00,70.0,50.0,-100.00,NNE,17,6.0,17.0,50,0.00,,,0.03,1072.000000,,2013-04-10 22:22:00,
2013-04-10 12:33:00,70.0,50.0,-100.00,NNE,17,6.0,17.0,50,0.00,,,0.03,1072.000000,,2013-04-10 22:33:00,
2013-04-10 12:42:00,70.0,50.0,-100.00,NNE,17,6.0,17.0,50,0.00,,,0.03,1072.000000,,2013-04-10 22:42:00,
2013-04-10 12:52:00,70.0,50.0,-100.00,NNE,17,6.0,17.0,50,0.00,,,0.03,1072.000000,,2013-04-10 22:52:00,
2013-04-10 13:22:00,70.0,50.0,-100.00,North,8,8.0,19.0,50,0.00,,,0.03,1083.000000,,2013-04-10 23:22:00,
2013-04-10 13:32:00,70.0,50.0,-100.00,North,8,8.0,19.0,50,0.00,,,0.03,1083.000000,,2013-04-10 23:32:00,
2013-04-10 13:42:00,70.0,50.0,-100.00,North,8,8.0,19.0,50,0.00,,,0.03,1083.000000,,2013-04-10 23:42:00,
2013-04-10 13:52:00,70.0,50.0,-100.00,North,8,8.0,19.0,50,0.00,,,0.03,1083.000000,,2013-04-10 23:52:00,
2013-04-10 14:22:00,71.0,53.0,-100.00,North,354,7.0,17.0,53,0.00,,,0.03,1036.000000,,2013-04-11 00:22:00,
2013-04-10 14:32:00,71.0,53.0,-100.00,North,354,7.0,17.0,53,0.00,,,0.03,1036.000000,,2013-04-11 00:32:00,
2013-04-10 14:42:00,71.0,53.0,-100.00,North,354,7.0,17.0,53,0.00,,,0.03,1036.000000,,2013-04-11 00:42:00,
2013-04-10 14:52:00,71.0,53.0,-100.00,North,354,7.0,17.0,53,0.00,,,0.03,1036.000000,,2013-04-11 00:52:00,
2013-04-10 15:22:00,70.0,54.0,-100.00,North,350,8.0,18.0,57,0.00,,,0.03,917.000000,,2013-04-11 01:22:00,
2013-04-10 15:32:00,70.0,54.0,-100.00,North,350,8.0,18.0,57,0.00,,,0.03,917.000000,,2013-04-11 01:32:00,
2013-04-10 15:42:00,70.0,54.0,-100.00,North,350,8.0,18.0,57,0.00,,,0.03,917.000000,,2013-04-11 01:42:00,
2013-04-10 15:52:00,70.0,54.0,-100.00,North,350,8.0,18.0,57,0.00,,,0.03,917.000000,,2013-04-11 01:52:00,
2013-04-10 16:22:00,68.0,52.0,-100.00,NNE,18,7.0,18.0,57,0.00,,,0.03,723.000000,,2013-04-11 02:22:00,
2013-04-10 16:32:00,68.0,52.0,-100.00,NNE,18,7.0,18.0,57,0.00,,,0.03,723.000000,,2013-04-11 02:32:00,
2013-04-10 16:42:00,68.0,52.0,-100.00,NNE,18,7.0,18.0,57,0.00,,,0.03,723.000000,,2013-04-11 02:42:00,
2013-04-10 16:52:00,68.0,52.0,-100.00,NNE,18,7.0,18.0,57,0.00,,,0.03,723.000000,,2013-04-11 02:52:00,
2013-04-10 17:22:00,67.0,53.0,-100.00,NNW,335,7.0,15.0,61,0.00,,,0.03,480.000000,,2013-04-11 03:22:00,
2013-04-10 17:33:00,67.0,53.0,-100.00,NNW,335,7.0,15.0,61,0.00,,,0.03,480.000000,,2013-04-11 03:33:00,
2013-04-10 17:43:00,67.0,53.0,-100.00,NNW,335,7.0,15.0,61,0.00,,,0.03,480.000000,,2013-04-11 03:43:00,
2013-04-10 17:53:00,67.0,53.0,-100.00,NNW,335,7.0,15.0,61,0.00,,,0.03,480.000000,,2013-04-11 03:53:00,
2013-04-10 18:22:00,68.0,55.0,-100.00,North,359,5.0,13.0,63,0.00,,,0.03,224.000000,,2013-04-11 04:22:00,
2013-04-10 18:33:00,68.0,55.0,-100.00,North,359,5.0,13.0,63,0.00,,,0.03,224.000000,,2013-04-11 04:33:00,
2013-04-10 18:42:00,68.0,55.0,-100.00,North,359,5.0,13.0,63,0.00,,,0.03,224.000000,,2013-04-11 04:42:00,
2013-04-10 18:52:00,68.0,55.0,-100.00,North,359,5.0,13.0,63,0.00,,,0.03,224.000000,,2013-04-11 04:52:00,
2013-04-10 19:22:00,62.0,55.0,-100.00,NNW,334,2.0,9.0,78,0.00,,,0.02,22.000000,,2013-04-11 05:22:00,
2013-04-10 19:32:00,62.0,55.0,-100.00,NNW,334,2.0,9.0,78,0.00,,,0.02,22.000000,,2013-04-11 05:32:00,
2013-04-10 19:42:00,62.0,55.0,-100.00,NNW,334,2.0,9.0,78,0.00,,,0.02,22.000000,,2013-04-11 05:42:00,
2013-04-10 19:52:00,62.0,55.0,-100.00,NNW,334,2.0,9.0,78,0.00,,,0.02,22.000000,,2013-04-11 05:52:00,
2013-04-10 20:22:00,52.0,47.0,-100.00,ESE,116,2.0,4.0,82,0.00,,,0.01,0.000000,,2013-04-11 06:22:00,
2013-04-10 20:32:00,52.0,47.0,-100.00,ESE,116,2.0,4.0,82,0.00,,,0.01,0.000000,,2013-04-11 06:32:00,
2013-04-10 20:42:00,52.0,47.0,-100.00,ESE,116,2.0,4.0,82,0.00,,,0.01,0.000000,,2013-04-11 06:42:00,
2013-04-10 20:52:00,52.0,47.0,-100.00,ESE,116,2.0,4.0,82,0.00,,,0.01,0.000000,,2013-04-11 06:52:00,
2013-04-10 21:22:00,50.0,43.0,-100.00,SE,129,4.0,6.0,78,0.00,,,0.00,0.000000,,2013-04-11 07:22:00,
2013-04-10 21:32:00,50.0,43.0,-100.00,SE,129,4.0,6.0,78,0.00,,,0.00,0.000000,,2013-04-11 07:32:00,
2013-04-10 21:42:00,50.0,43.0,-100.00,SE,129,4.0,6.0,78,0.00,,,0.00,0.000000,,2013-04-11 07:42:00,
2013-04-10 21:52:00,50.0,43.0,-100.00,SE,129,4.0,6.0,78,0.00,,,0.00,0.000000,,2013-04-11 07:52:00,
2013-04-10 22:22:00,51.0,40.0,-100.00,ESE,102,4.0,7.0,66,0.00,,,0.00,0.000000,,2013-04-11 08:22:00,
2013-04-10 22:32:00,51.0,40.0,-100.00,ESE,102,4.0,7.0,66,0.00,,,0.00,0.000000,,2013-04-11 08:32:00,
2013-04-10 22:42:00,51.0,40.0,-100.00,ESE,102,4.0,7.0,66,0.00,,,0.00,0.000000,,2013-04-11 08:42:00,
2013-04-10 22:51:00,51.0,40.0,-100.00,ESE,102,4.0,7.0,66,0.00,,,0.00,0.000000,,2013-04-11 08:51:00,
2013-04-10 23:22:00,51.0,51.0,-100.00,SE,130,3.0,5.0,99,0.00,,,0.00,0.000000,,2013-04-11 09:22:00,
2013-04-10 23:33:00,51.0,51.0,-100.00,SE,130,3.0,5.0,99,0.00,,,0.00,0.000000,,2013-04-11 09:33:00,
2013-04-10 23:42:00,51.0,51.0,-100.00,SE,130,3.0,5.0,99,0.00,,,0.00,0.000000,,2013-04-11 09:42:00,
2013-04-10 23:52:00,51.0,51.0,-100.00,SE,130,3.0,5.0,99,0.00,,,0.00,0.000000,,2013-04-11 09:52:00,